LiveATC.Net - Listen to live air traffic control over the Internet!
Airport/ARTCC Code
Frequency Search
(e.g., 124.400, 128.75)
Site-wide search
 


Browse Feeds
Top 50 Feeds
HF Oceanic Feeds
Coverage Map
Bad Weather Areas

LiveATC FAQ
Offer LiveATC feed
Contact LiveATC.net
Press Inquiries

LiveATC on iPhone
LiveATC on Android

LiveATC Mobile
(Mobile browser)

ATC Audio Archives
Interesting Recordings

LiveATC Forums

Home Page
About LiveATC.net


Terms of Use
Privacy Policy

AIRMETs/SIGMETs

FAA Airport Status
NAS Status
Arrival Demand


Server Software By:
Icecast.org
Liquidsoap

Select an area of interest:
U.S. Feeds: Class B Airports | Class C Airports | Class D/Other Airports | ARTCC (Centers)
International Feeds: Canada | Europe | Oceania | Asia | South America | North/Central America | Africa
Misc Feeds: HF Feeds
Search by ICAO/IATA airport code:   (e.g., kbos, kjfk, lax, eham, etc.)


Currently Available Live Feeds: 3040
Status Updated: Fri Jul 01 2022 07:38:38 UTC


NOTICE

Unauthorized use prohibited. See LiveATC.net Terms of Service

Asia Airport Feeds

 

OBBI Gnd/Twr/App (Archives)
Muharraq, Bahrain

Feed Status: UP
Listen in your browser - HTML5 player(in browser, HTML5)
Click here to listen with your own player(launches your MP3 player)

OBBI 010730Z 33019KT CAVOK 38/20 Q0995 NOSIG


Listeners: 1 out of 1166 total

Bahrain Arrival: 127.850
Bahrain Control (Low Central): 124.300
Bahrain Control (Low East): 125.700
Bahrain Control (Low North): 126.700
Bahrain Departure: 119.100
Bahrain Ground: 121.850
Bahrain Tower: 118.500

OKBK Gnd/Twr/App/Radar (Archives)
Kuwait City, Kuwait

Feed Status: UP
Listen in your browser - HTML5 player(in browser, HTML5)
Click here to listen with your own player(launches your MP3 player)

OKBK 010700Z 34020KT CAVOK 44/00 Q0997 NOSIG


Listeners: 1 out of 1166 total

Kuwait Approach: 121.300
Kuwait Approach: 124.800
Kuwait Ground: 121.700
Kuwait Radar (Center): 125.300
Kuwait Tower: 118.300

OPKC Gnd/Twr/Radar (Archives)
Karachi, Pakistan

Feed Status: UP
Listen in your browser - HTML5 player(in browser, HTML5)
Click here to listen with your own player(launches your MP3 player)

OPKC 010730Z 27015KT 6000 SCT030 BKN100 35/24 Q0995 TEMPO 25015G25KT


Listeners: 5 out of 1166 total

Karachi Ground: 121.600
Karachi Radar: 125.500
Karachi Tower: 118.300

OPLA ATIS (Archives)
Lahore, Pakistan

Feed Status: UP
Listen in your browser - HTML5 player(in browser, HTML5)
Click here to listen with your own player(launches your MP3 player)

OPLA 010725Z 11010KT 4000 FU SCT040 OVC100 27/24 Q1001 TEMPO 36020G40KT 2000 TSRA FEW030CB RMK QFE974 A29.59


Listeners: 1 out of 1166 total

Lahore ATIS: 126.300

OPLA/OPLH Gnd/Twr/App (Archives)
Lahore, Pakistan

Feed Status: UP
Listen in your browser - HTML5 player(in browser, HTML5)
Click here to listen with your own player(launches your MP3 player)

OPLA 010725Z 11010KT 4000 FU SCT040 OVC100 27/24 Q1001 TEMPO 36020G40KT 2000 TSRA FEW030CB RMK QFE974 A29.59


Listeners: 2 out of 1166 total

Lahore Approach: 121.300
Lahore Approach: 125.300
Lahore Control: 127.500
Lahore Ground: 118.400
Lahore Tower: 118.100
Lahore Tower: 121.800
Walton (OPLH) Tower: 119.400

RJAA Approach (Archives)
Tokyo, Japan

Feed Status: UP
Listen in your browser - HTML5 player(in browser, HTML5)
Click here to listen with your own player(launches your MP3 player)

RJAA 010700Z 11010KT 9999 FEW030 32/22 Q1013 NOSIG RMK 2CU030 A2994

RJAA Flight Activity (Flightaware)

Listeners: 17 out of 1166 total

Tokyo Approach: 124.400
Tokyo Approach: 127.700

RJAA ATIS (Archives)
Tokyo, Japan

Feed Status: UP
Listen in your browser - HTML5 player(in browser, HTML5)
Click here to listen with your own player(launches your MP3 player)

RJAA 010700Z 11010KT 9999 FEW030 32/22 Q1013 NOSIG RMK 2CU030 A2994

RJAA Flight Activity (Flightaware)

Listeners: 1 out of 1166 total

Narita ATIS: 128.250

RJAA Clearance Delivery (Archives)
Tokyo, Japan

Feed Status: UP
Listen in your browser - HTML5 player(in browser, HTML5)
Click here to listen with your own player(launches your MP3 player)

RJAA 010700Z 11010KT 9999 FEW030 32/22 Q1013 NOSIG RMK 2CU030 A2994

RJAA Flight Activity (Flightaware)

Listeners: 1 out of 1166 total

Narita Clearance Delivery (Asia/Pacific): 121.650
Narita Clearance Delivery (US/Europe): 121.900

RJAA Clearance Delivery #1 (Archives)
Tokyo, Japan

Feed Status: UP
Listen in your browser - HTML5 player(in browser, HTML5)
Click here to listen with your own player(launches your MP3 player)

RJAA 010700Z 11010KT 9999 FEW030 32/22 Q1013 NOSIG RMK 2CU030 A2994

RJAA Flight Activity (Flightaware)

Listeners: 0 out of 1166 total

Narita Clearance Delivery (Asia/Pacific): 121.650

RJAA Clearance Delivery #2 (Archives)
Tokyo, Japan

Feed Status: UP
Listen in your browser - HTML5 player(in browser, HTML5)
Click here to listen with your own player(launches your MP3 player)

RJAA 010700Z 11010KT 9999 FEW030 32/22 Q1013 NOSIG RMK 2CU030 A2994

RJAA Flight Activity (Flightaware)

Listeners: 1 out of 1166 total

Narita Clearance Delivery (US/Europe): 121.900

RJAA Company Channels (Archives)
Tokyo, Japan

Feed Status: UP
Listen in your browser - HTML5 player(in browser, HTML5)
Click here to listen with your own player(launches your MP3 player)

RJAA 010700Z 11010KT 9999 FEW030 32/22 Q1013 NOSIG RMK 2CU030 A2994

RJAA Flight Activity (Flightaware)

Listeners: 3 out of 1166 total

Ops: 130.450
Ops: 130.550
Ops: 130.900
Ops: 131.025
Ops: 131.100
Ops: 131.200
Ops: 131.700
Ops: 131.750

RJAA Departure (Archives)
Tokyo, Japan

Feed Status: UP
Listen in your browser - HTML5 player(in browser, HTML5)
Click here to listen with your own player(launches your MP3 player)

RJAA 010700Z 11010KT 9999 FEW030 32/22 Q1013 NOSIG RMK 2CU030 A2994

RJAA Flight Activity (Flightaware)

Listeners: 3 out of 1166 total

Tokyo Departure: 119.600
Tokyo Departure: 124.200

RJAA Departure #1 (Archives)
Tokyo, Japan

Feed Status: UP
Listen in your browser - HTML5 player(in browser, HTML5)
Click here to listen with your own player(launches your MP3 player)

RJAA 010700Z 11010KT 9999 FEW030 32/22 Q1013 NOSIG RMK 2CU030 A2994

RJAA Flight Activity (Flightaware)

Listeners: 1 out of 1166 total

Tokyo Departure: 124.200

RJAA Departure #2 (Archives)
Tokyo, Japan

Feed Status: UP
Listen in your browser - HTML5 player(in browser, HTML5)
Click here to listen with your own player(launches your MP3 player)

RJAA 010700Z 11010KT 9999 FEW030 32/22 Q1013 NOSIG RMK 2CU030 A2994

RJAA Flight Activity (Flightaware)

Listeners: 0 out of 1166 total

Tokyo Departure: 119.600

RJAA Emergency/Guard (Archives)
Tokyo, Japan

Feed Status: UP
Listen in your browser - HTML5 player(in browser, HTML5)
Click here to listen with your own player(launches your MP3 player)

RJAA 010700Z 11010KT 9999 FEW030 32/22 Q1013 NOSIG RMK 2CU030 A2994

RJAA Flight Activity (Flightaware)

Listeners: 1 out of 1166 total

Emergency/Guard: 121.500

RJAA Ground #1 (Archives)
Tokyo, Japan

Feed Status: UP
Listen in your browser - HTML5 player(in browser, HTML5)
Click here to listen with your own player(launches your MP3 player)

RJAA 010700Z 11010KT 9999 FEW030 32/22 Q1013 NOSIG RMK 2CU030 A2994

RJAA Flight Activity (Flightaware)

Listeners: 1 out of 1166 total

Narita Ground: 121.850

RJAA Ground #2 (Archives)
Tokyo, Japan

Feed Status: UP
Listen in your browser - HTML5 player(in browser, HTML5)
Click here to listen with your own player(launches your MP3 player)

RJAA 010700Z 11010KT 9999 FEW030 32/22 Q1013 NOSIG RMK 2CU030 A2994

RJAA Flight Activity (Flightaware)

Listeners: 0 out of 1166 total

Narita Ground: 121.950

RJAA Radar 119.025 (Archives)
Tokyo, Japan

Feed Status: UP
Listen in your browser - HTML5 player(in browser, HTML5)
Click here to listen with your own player(launches your MP3 player)

RJAA 010700Z 11010KT 9999 FEW030 32/22 Q1013 NOSIG RMK 2CU030 A2994

RJAA Flight Activity (Flightaware)

Listeners: 2 out of 1166 total

Tokyo Radar: 119.025

RJAA Radar 120.2 (Archives)
Tokyo, Japan

Feed Status: UP
Listen in your browser - HTML5 player(in browser, HTML5)
Click here to listen with your own player(launches your MP3 player)

RJAA 010700Z 11010KT 9999 FEW030 32/22 Q1013 NOSIG RMK 2CU030 A2994

RJAA Flight Activity (Flightaware)

Listeners: 3 out of 1166 total

Tokyo Radar: 120.200

RJAA Radar 120.6 (Archives)
Tokyo, Japan

Feed Status: UP
Listen in your browser - HTML5 player(in browser, HTML5)
Click here to listen with your own player(launches your MP3 player)

RJAA 010700Z 11010KT 9999 FEW030 32/22 Q1013 NOSIG RMK 2CU030 A2994

RJAA Flight Activity (Flightaware)

Listeners: 0 out of 1166 total

Tokyo Radar: 120.600

RJAA Radar 132.1 (Archives)
Tokyo, Japan

Feed Status: UP
Listen in your browser - HTML5 player(in browser, HTML5)
Click here to listen with your own player(launches your MP3 player)

RJAA 010700Z 11010KT 9999 FEW030 32/22 Q1013 NOSIG RMK 2CU030 A2994

RJAA Flight Activity (Flightaware)

Listeners: 0 out of 1166 total

Tokyo Radar: 132.100

RJAA Radar 133.35 (Archives)
Tokyo, Japan

Feed Status: UP
Listen in your browser - HTML5 player(in browser, HTML5)
Click here to listen with your own player(launches your MP3 player)

RJAA 010700Z 11010KT 9999 FEW030 32/22 Q1013 NOSIG RMK 2CU030 A2994

RJAA Flight Activity (Flightaware)

Listeners: 1 out of 1166 total

Tokyo Radar: 133.350

RJAA Ramp #1 (Archives)
Tokyo, Japan

Feed Status: UP
Listen in your browser - HTML5 player(in browser, HTML5)
Click here to listen with your own player(launches your MP3 player)

RJAA 010700Z 11010KT 9999 FEW030 32/22 Q1013 NOSIG RMK 2CU030 A2994

RJAA Flight Activity (Flightaware)

Listeners: 0 out of 1166 total

Narita Ramp: 121.600

RJAA Ramp #2 (Archives)
Tokyo, Japan

Feed Status: UP
Listen in your browser - HTML5 player(in browser, HTML5)
Click here to listen with your own player(launches your MP3 player)

RJAA 010700Z 11010KT 9999 FEW030 32/22 Q1013 NOSIG RMK 2CU030 A2994

RJAA Flight Activity (Flightaware)

Listeners: 0 out of 1166 total

Narita Ramp: 121.750

RJAA TCA (Archives)
Tokyo, Japan

Feed Status: UP
Listen in your browser - HTML5 player(in browser, HTML5)
Click here to listen with your own player(launches your MP3 player)

RJAA 010700Z 11010KT 9999 FEW030 32/22 Q1013 NOSIG RMK 2CU030 A2994

RJAA Flight Activity (Flightaware)

Listeners: 0 out of 1166 total

Tokyo TCA (Terminal Control Area): 119.450

RJAA Tokyo Control (Archives)
Tokyo, Japan

Feed Status: UP
Listen in your browser - HTML5 player(in browser, HTML5)
Click here to listen with your own player(launches your MP3 player)

RJAA 010700Z 11010KT 9999 FEW030 32/22 Q1013 NOSIG RMK 2CU030 A2994

RJAA Flight Activity (Flightaware)

Listeners: 120 out of 1166 total

Tokyo Control: 125.900

RJAA Tower #1 (Archives)
Tokyo, Japan

Feed Status: UP
Listen in your browser - HTML5 player(in browser, HTML5)
Click here to listen with your own player(launches your MP3 player)

RJAA 010700Z 11010KT 9999 FEW030 32/22 Q1013 NOSIG RMK 2CU030 A2994

RJAA Flight Activity (Flightaware)

Listeners: 1 out of 1166 total

Narita Tower (Rwy 16R/34L): 118.200

RJAA Tower #2 (Archives)
Tokyo, Japan

Feed Status: UP
Listen in your browser - HTML5 player(in browser, HTML5)
Click here to listen with your own player(launches your MP3 player)

RJAA 010700Z 11010KT 9999 FEW030 32/22 Q1013 NOSIG RMK 2CU030 A2994

RJAA Flight Activity (Flightaware)

Listeners: 2 out of 1166 total

Narita Tower (Rwy 16L/34R): 118.350

RJAA Tower (Both) (Archives)
Tokyo, Japan

Feed Status: UP
Listen in your browser - HTML5 player(in browser, HTML5)
Click here to listen with your own player(launches your MP3 player)

RJAA 010700Z 11010KT 9999 FEW030 32/22 Q1013 NOSIG RMK 2CU030 A2994

RJAA Flight Activity (Flightaware)

Listeners: 2 out of 1166 total

Narita Tower (Rwy 16L/34R): 118.350
Narita Tower (Rwy 16R/34L): 118.200

RJOO Tower (Archives)
Osaka, Japan

Feed Status: UP
Listen in your browser - HTML5 player(in browser, HTML5)
Click here to listen with your own player(launches your MP3 player)

RJOO 010700Z VRB04KT 9999 FEW030 37/19 Q1012 RMK 1CU030 A2991

RJOO Flight Activity (Flightaware)

Listeners: 6 out of 1166 total

Osaka Tower: 118.100

RJSF RDO (Archives)
Sukagawa, Japan

Feed Status: UP
Listen in your browser - HTML5 player(in browser, HTML5)
Click here to listen with your own player(launches your MP3 player)

RJSF 010700Z 35011KT 9999 FEW045 32/19 Q1016

RJSF Flight Activity (Flightaware)

Listeners: 1 out of 1166 total

Fukushima Radio: 118.050

RJTT App/Dep (Archives)
Tokyo, Japan

Feed Status: UP
Listen in your browser - HTML5 player(in browser, HTML5)
Click here to listen with your own player(launches your MP3 player)

RJTT 010700Z 19013KT 9999 FEW030 32/24 Q1013 NOSIG RMK 1CU030 A2993

RJTT Flight Activity (Flightaware)

Listeners: 30 out of 1166 total

Tokyo Approach: 119.100
Tokyo Approach: 119.400
Tokyo Departure: 120.800
Tokyo Departure: 126.000

RJTT Approach (Archives)
Tokyo, Japan

Feed Status: UP
Listen in your browser - HTML5 player(in browser, HTML5)
Click here to listen with your own player(launches your MP3 player)

RJTT 010700Z 19013KT 9999 FEW030 32/24 Q1013 NOSIG RMK 1CU030 A2993

RJTT Flight Activity (Flightaware)

Listeners: 14 out of 1166 total

Tokyo Approach: 119.100
Tokyo Approach: 119.400

RJTT ATIS (Archives)
Tokyo, Japan

Feed Status: UP
Listen in your browser - HTML5 player(in browser, HTML5)
Click here to listen with your own player(launches your MP3 player)

RJTT 010700Z 19013KT 9999 FEW030 32/24 Q1013 NOSIG RMK 1CU030 A2993

RJTT Flight Activity (Flightaware)

Listeners: 2 out of 1166 total

Tokyo ATIS: 128.800

RJTT Company Channels (Archives)
Tokyo, Japan

Feed Status: UP
Listen in your browser - HTML5 player(in browser, HTML5)
Click here to listen with your own player(launches your MP3 player)

RJTT 010700Z 19013KT 9999 FEW030 32/24 Q1013 NOSIG RMK 1CU030 A2993

RJTT Flight Activity (Flightaware)

Listeners: 15 out of 1166 total

Company TBD: 128.500
Company TBD: 131.850
Company TBD: 129.725
Company TBD: 129.700
Company TBD: 131.900
Company TBD: 129.850
Company TBD: 128.975
Company TBD: 123.675
Company TBD: 132.075

RJTT Del/Ground (Archives)
Tokyo, Japan

Feed Status: UP
Listen in your browser - HTML5 player(in browser, HTML5)
Click here to listen with your own player(launches your MP3 player)

RJTT 010700Z 19013KT 9999 FEW030 32/24 Q1013 NOSIG RMK 1CU030 A2993

RJTT Flight Activity (Flightaware)

Listeners: 3 out of 1166 total

Tokyo Clearance Delivery: 121.825
Tokyo Ground: 121.700
Tokyo Ground: 118.225
Tokyo Ground: 121.625
Tokyo Ground: 121.975

RJTT Del/Twr/TCA/Gnd (Archives)
Tokyo, Japan

Feed Status: UP
Listen in your browser - HTML5 player(in browser, HTML5)
Click here to listen with your own player(launches your MP3 player)

RJTT 010700Z 19013KT 9999 FEW030 32/24 Q1013 NOSIG RMK 1CU030 A2993

RJTT Flight Activity (Flightaware)

Listeners: 7 out of 1166 total

Tokyo Clearance Delivery: 121.825
Tokyo Ground: 121.975
Tokyo Ground: 121.625
Tokyo Ground: 121.700
Tokyo Ground: 118.225
Tokyo TCA: 124.750
Tokyo Tower: 118.100
Tokyo Tower: 118.575
Tokyo Tower: 118.725
Tokyo Tower: 124.350

RJTT Departure (Archives)
Tokyo, Japan

Feed Status: UP
Listen in your browser - HTML5 player(in browser, HTML5)
Click here to listen with your own player(launches your MP3 player)

RJTT 010700Z 19013KT 9999 FEW030 32/24 Q1013 NOSIG RMK 1CU030 A2993

RJTT Flight Activity (Flightaware)

Listeners: 2 out of 1166 total

Tokyo Departure: 120.800
Tokyo Departure: 126.000

RJTT Tokyo Control (Archives)
Tokyo, Japan

Feed Status: UP
Listen in your browser - HTML5 player(in browser, HTML5)
Click here to listen with your own player(launches your MP3 player)

RJTT 010700Z 19013KT 9999 FEW030 32/24 Q1013 NOSIG RMK 1CU030 A2993

RJTT Flight Activity (Flightaware)

Listeners: 8 out of 1166 total

Tokyo Control: 133.700
Tokyo Control: 125.900
Tokyo Control: 120.500

RJTT Twr/TCA (Archives)
Tokyo, Japan

Feed Status: UP
Listen in your browser - HTML5 player(in browser, HTML5)
Click here to listen with your own player(launches your MP3 player)

RJTT 010700Z 19013KT 9999 FEW030 32/24 Q1013 NOSIG RMK 1CU030 A2993

RJTT Flight Activity (Flightaware)

Listeners: 12 out of 1166 total

Tokyo TCA: 124.750
Tokyo Tower: 118.100
Tokyo Tower: 118.575
Tokyo Tower: 118.725
Tokyo Tower: 124.350

RJTY Approach (Archives)
Tokyo, Japan

Feed Status: UP
Listen in your browser - HTML5 player(in browser, HTML5)
Click here to listen with your own player(launches your MP3 player)

RJTY 010656Z 18012KT 10SM SCT110 BKN250 32/22 A2996 RMK AO2A SLP144 T03240219 $

RJTY Flight Activity (Flightaware)

Listeners: 5 out of 1166 total

Yokota Approach: 118.300
Yokota APproach: 123.800
Yokota Approach: 120.700

RJTY ATIS (Archives)
Tokyo, Japan

Feed Status: UP
Listen in your browser - HTML5 player(in browser, HTML5)
Click here to listen with your own player(launches your MP3 player)

RJTY 010656Z 18012KT 10SM SCT110 BKN250 32/22 A2996 RMK AO2A SLP144 T03240219 $

RJTY Flight Activity (Flightaware)

Listeners: 1 out of 1166 total

Yokota ATIS: 126.400

RJTY Ground (Archives)
Tokyo, Japan

Feed Status: UP
Listen in your browser - HTML5 player(in browser, HTML5)
Click here to listen with your own player(launches your MP3 player)

RJTY 010656Z 18012KT 10SM SCT110 BKN250 32/22 A2996 RMK AO2A SLP144 T03240219 $

RJTY Flight Activity (Flightaware)

Listeners: 2 out of 1166 total

Yokota Ground: 133.200

RJTY Ground/Tower (Archives)
Tokyo, Japan

Feed Status: UP
Listen in your browser - HTML5 player(in browser, HTML5)
Click here to listen with your own player(launches your MP3 player)

RJTY 010656Z 18012KT 10SM SCT110 BKN250 32/22 A2996 RMK AO2A SLP144 T03240219 $

RJTY Flight Activity (Flightaware)

Listeners: 3 out of 1166 total

Yokota Ground: 133.200
Yokota Tower: 134.300

RJTY Tower (Archives)
Tokyo, Japan

Feed Status: UP
Listen in your browser - HTML5 player(in browser, HTML5)
Click here to listen with your own player(launches your MP3 player)

RJTY 010656Z 18012KT 10SM SCT110 BKN250 32/22 A2996 RMK AO2A SLP144 T03240219 $

RJTY Flight Activity (Flightaware)

Listeners: 5 out of 1166 total

Yokota Tower: 134.300

UNNT Gnd/Twr/App/Radar/Misc (Archives)
Novosibirsk, Russia

Feed Status: UP
Listen in your browser - HTML5 player(in browser, HTML5)
Click here to listen with your own player(launches your MP3 player)

UNNT 010700Z 25005MPS 9999 OVC038 16/10 Q1003 R25/090070 R34/////// NOSIG RMK QFE742/0990

UNNT Flight Activity (Flightaware)

Listeners: 4 out of 1166 total

ACC_Novosibirsk-Control [5th military channel]: 128.500
ACC_Novosibirsk-Control [Southeast]: 126.100
ACC_Novosibirsk-Control [West]: 127.000
GPA_Kristallik [Severniy airfield]: 123.425
GPA_Sernisiy [Chkalovskiy airfield]: 124.750
GPA_Tomsk Information 1: 134.500
MIL_3 [3rd military channel]: 130.750
MIL_Larek [Shilovo facility]: 123.750
MIL_Maneken [Chkalovskiy airfield]: 123.550
MIL_Novosibirsk-1 [1st military channel]: 124.000
MIL_Noyabr' 31: 124.900
MIL_Trimaran: 124.500
SP_Air-to-Air: 123.450
SP_Air-to-Air 2: 123.400
SP_Common backup frequency: 129.000
SP_Emergency: 121.500
SP_Emergency 2: 123.100
SP_Flyoff: 124.375
SURF_Boarding: 163.425
SURF_Duty chart: 163.800
SURF_O&D Service: 163.325
SURF_Search & Rescue: 164.000
SURF_Security: 163.750
SURF_Tower surf: 163.650
SURF_Vehicles: 163.850
UNNT_Backup frequency: 127.100
UNNT_Novosibirsk-Approach: 127.500
UNNT_Novosibirsk-Ground: 121.700
UNNT_Novosibirsk-Radar: 122.000
UNNT_Novosibirsk-Tower: 118.500
UNNT_Novosibirsk-Transit: 131.600
UNNT_S7 FOCC: 131.925

UNOO Gnd/Tower/App (Archives)
Omsk, Russia

Feed Status: UP
Listen in your browser - HTML5 player(in browser, HTML5)
Click here to listen with your own player(launches your MP3 player)

UNOO 010700Z 29007MPS 9999 BKN023CB 14/08 Q1006 R25/CLRD60 NOSIG RMK QFE746

UNOO Flight Activity (Flightaware)

Listeners: 2 out of 1166 total

Aerodrom Kalachevo: 123.300
Aerodrom Marianovka: 123.000
Emergency/Guard: 121.500
Novosibirsk Control (Sector 7): 132.500
Novosibirsk Control (Sector 8): 132.900
Omsk Approach (FL060-FL265): 131.200
Omsk Apron: 118.800
Omsk Start/Radar: 119.000
Omsk Taxiing: 121.700
Omsk Transit: 131.700
UNOS/OMSK-Severny: 124.000

UNTT Gnd/Info/Radar/Control (Archives)
Tomsk, Russia

Feed Status: UP
Listen in your browser - HTML5 player(in browser, HTML5)
Click here to listen with your own player(launches your MP3 player)

UNTT Flight Activity (Flightaware)

Listeners: 1 out of 1166 total

Common Backup Frequency: 129.000
Emergency/Guard: 121.500
Kemerovo Approach: 125.500
Novosibirsk Control (Sector 3): 129.300
Novosibirsk Control (Sector 5): 132.300
Novosibirsk Control (Sector 9): 134.400
Tomsk Ground: 118.800
Tomsk Information (Sector 3): 129.800
Tomsk Tower: 127.300
Tomsk Transit: 131.875
Troynik (Golovino): 122.400

USTR Gnd/Twr/App (Archives)
Tyumen, Russia

Feed Status: UP
Listen in your browser - HTML5 player(in browser, HTML5)
Click here to listen with your own player(launches your MP3 player)

USTR 010700Z 29006MPS 9999 FEW024 15/08 Q1012 R30/CLRD65 R21/CLRD65 TEMPO 31012MPS

USTR Flight Activity (Flightaware)

Listeners: 2 out of 1166 total

Tyumen Approach: 126.100
Tyumen Control: 132.600
Tyumen Control: 133.600
Tyumen Info (Regional): 133.400
Tyumen Start: 118.200
Tyumen Transit: 131.800

VHHH App/Dep/Dir/Zone (Archives)
Hong Kong, Hong Kong

Feed Status: UP
Listen in your browser - HTML5 player(in browser, HTML5)
Click here to listen with your own player(launches your MP3 player)

VHHH 010700Z 08018KT 5000 +SHRA FEW010CB FEW018 SCT025 27/25 Q0999 TEMPO 09025G35KT 3000 TSRA SHRA FEW010CB SCT020 BKN040

VHHH Flight Activity (Flightaware)

Listeners: 7 out of 1166 total

Emergency/Guard: 121.500
Hong Kong Approach: 119.100
Hong Kong Approach: 119.350
Hong Kong Departure: 123.800
Hong Kong Departure: 122.000
Hong Kong Departure: 124.050
Hong Kong Director: 119.500
Hong Kong Director: 119.350
Hong Kong Zone: 120.600

VMMC Tower (Archives)
Taipa, Macau

Feed Status: UP
Listen in your browser - HTML5 player(in browser, HTML5)
Click here to listen with your own player(launches your MP3 player)

VMMC 010700Z 03018KT 9999 FEW015 SCT030 27/26 Q0998 NOSIG

VMMC Flight Activity (Flightaware)

Listeners: 7 out of 1166 total

Macau Tower: 118.000

VTBS Approach (East) (Archives)
Bangkok, Thailand

Feed Status: UP
Listen in your browser - HTML5 player(in browser, HTML5)
Click here to listen with your own player(launches your MP3 player)

VTBS 010700Z 21008KT 9999 FEW020 33/23 Q1002 NOSIG

VTBS Flight Activity (Flightaware)

Listeners: 0 out of 1166 total

Bangkok Approach (East): 122.350

VTBS Approach 119.1 (Archives)
Bangkok, Thailand

Feed Status: UP
Listen in your browser - HTML5 player(in browser, HTML5)
Click here to listen with your own player(launches your MP3 player)

VTBS 010700Z 21008KT 9999 FEW020 33/23 Q1002 NOSIG

VTBS Flight Activity (Flightaware)

Listeners: 0 out of 1166 total

Bangkok Approach: 119.100

VTBS Approach 119.4 (Archives)
Bangkok, Thailand

Feed Status: UP
Listen in your browser - HTML5 player(in browser, HTML5)
Click here to listen with your own player(launches your MP3 player)

VTBS 010700Z 21008KT 9999 FEW020 33/23 Q1002 NOSIG

VTBS Flight Activity (Flightaware)

Listeners: 0 out of 1166 total

Bangkok Approach: 119.400

VTBS Approach 120.3 (Archives)
Bangkok, Thailand

Feed Status: UP
Listen in your browser - HTML5 player(in browser, HTML5)
Click here to listen with your own player(launches your MP3 player)

VTBS 010700Z 21008KT 9999 FEW020 33/23 Q1002 NOSIG

VTBS Flight Activity (Flightaware)

Listeners: 0 out of 1166 total

Bangkok Approach: 120.300

VTBS Approach/Arrival (Archives)
Bangkok, Thailand

Feed Status: UP
Listen in your browser - HTML5 player(in browser, HTML5)
Click here to listen with your own player(launches your MP3 player)

VTBS 010700Z 21008KT 9999 FEW020 33/23 Q1002 NOSIG

VTBS Flight Activity (Flightaware)

Listeners: 1 out of 1166 total

Bangkok Approach: 124.350
Bangkok Approach: 125.200
Bangkok Approach: 126.300
Bangkok Approach (North): 128.950
Bangkok Arrival (VTBD): 133.000

VTBS Arrival 121.1 (Archives)
Bangkok, Thailand

Feed Status: UP
Listen in your browser - HTML5 player(in browser, HTML5)
Click here to listen with your own player(launches your MP3 player)

VTBS 010700Z 21008KT 9999 FEW020 33/23 Q1002 NOSIG

VTBS Flight Activity (Flightaware)

Listeners: 1 out of 1166 total

Bangkok Arrival: 121.100

VTBS ATIS (Archives)
Bangkok, Thailand

Feed Status: UP
Listen in your browser - HTML5 player(in browser, HTML5)
Click here to listen with your own player(launches your MP3 player)

VTBS 010700Z 21008KT 9999 FEW020 33/23 Q1002 NOSIG

VTBS Flight Activity (Flightaware)

Listeners: 0 out of 1166 total

Bangkok D-ATIS: 127.650

VTBS Departure (Archives)
Bangkok, Thailand

Feed Status: UP
Listen in your browser - HTML5 player(in browser, HTML5)
Click here to listen with your own player(launches your MP3 player)

VTBS 010700Z 21008KT 9999 FEW020 33/23 Q1002 NOSIG

VTBS Flight Activity (Flightaware)

Listeners: 0 out of 1166 total

Bangkok Departure: 119.250

VTBS Ground (All) (Archives)
Bangkok, Thailand

Feed Status: UP
Listen in your browser - HTML5 player(in browser, HTML5)
Click here to listen with your own player(launches your MP3 player)

VTBS 010700Z 21008KT 9999 FEW020 33/23 Q1002 NOSIG

VTBS Flight Activity (Flightaware)

Listeners: 0 out of 1166 total

Bangkok Ground (East): 121.650
Bangkok Ground (Main): 121.750
Bangkok Ground (West): 121.950

VTBS Ground (East) (Archives)
Bangkok, Thailand

Feed Status: UP
Listen in your browser - HTML5 player(in browser, HTML5)
Click here to listen with your own player(launches your MP3 player)

VTBS 010700Z 21008KT 9999 FEW020 33/23 Q1002 NOSIG

VTBS Flight Activity (Flightaware)

Listeners: 0 out of 1166 total

Bangkok Ground (East): 121.650

VTBS Ground (Main) (Archives)
Bangkok, Thailand

Feed Status: UP
Listen in your browser - HTML5 player(in browser, HTML5)
Click here to listen with your own player(launches your MP3 player)

VTBS 010700Z 21008KT 9999 FEW020 33/23 Q1002 NOSIG

VTBS Flight Activity (Flightaware)

Listeners: 0 out of 1166 total

Bangkok Ground (Main): 121.750

VTBS Ground (West) (Archives)
Bangkok, Thailand

Feed Status: UP
Listen in your browser - HTML5 player(in browser, HTML5)
Click here to listen with your own player(launches your MP3 player)

VTBS 010700Z 21008KT 9999 FEW020 33/23 Q1002 NOSIG

VTBS Flight Activity (Flightaware)

Listeners: 0 out of 1166 total

Bangkok Ground (West): 121.950

VTBS Tower (Archives)
Bangkok, Thailand

Feed Status: UP
Listen in your browser - HTML5 player(in browser, HTML5)
Click here to listen with your own player(launches your MP3 player)

VTBS 010700Z 21008KT 9999 FEW020 33/23 Q1002 NOSIG

VTBS Flight Activity (Flightaware)

Listeners: 0 out of 1166 total

Bangkok Tower (Rwy 01L/19R): 119.000
Bangkok Tower (Rwy 01R/19L): 118.200

VTBS Tower (Rwy 01L/19R) (Archives)
Bangkok, Thailand

Feed Status: UP
Listen in your browser - HTML5 player(in browser, HTML5)
Click here to listen with your own player(launches your MP3 player)

VTBS 010700Z 21008KT 9999 FEW020 33/23 Q1002 NOSIG

VTBS Flight Activity (Flightaware)

Listeners: 0 out of 1166 total

Bangkok Tower (Rwy 01L/19R): 119.000

VTBS Tower (Rwy 01R/19L) (Archives)
Bangkok, Thailand

Feed Status: UP
Listen in your browser - HTML5 player(in browser, HTML5)
Click here to listen with your own player(launches your MP3 player)

VTBS 010700Z 21008KT 9999 FEW020 33/23 Q1002 NOSIG

VTBS Flight Activity (Flightaware)

Listeners: 0 out of 1166 total

Bangkok Tower (Rwy 01R/19L): 118.200

VTSS Approach (Archives)
Songkhla, Thailand

Feed Status: UP
Listen in your browser - HTML5 player(in browser, HTML5)
Click here to listen with your own player(launches your MP3 player)

VTSS 010700Z 24004KT 090V260 9999 VCSH FEW018CB SCT020 BKN100 27/24 Q1006 NOSIG

VTSS Flight Activity (Flightaware)

Listeners: 0 out of 1166 total

Hat Yai Approach: 126.700

WAHH Approach
Yogyakarta, Indonesia

Feed Status: DOWN
Offline since: 2019-01-09 17:03:03 UTC

Adisutjipto Approach: 123.400

WBKK Gnd/Twr/Radar/Control (Archives)
Kota Kinabalu, Malaysia

Feed Status: UP
Listen in your browser - HTML5 player(in browser, HTML5)
Click here to listen with your own player(launches your MP3 player)

WBKK 010700Z VRB02KT 9999 FEW015 31/25 Q1006 NOSIG


Listeners: 3 out of 1166 total

Kinabalu Director: 119.100
Kinabalu Ground: 121.600
Kinabalu Radar: 126.100
Kinabalu Radar: 132.450
Kinabalu Radar: 128.300
Kinabalu Tower: 118.300

WBKS Approach
Sandakan, Malaysia

Feed Status: DOWN
Offline since: 2022-07-01 07:16:05 UTC

WBKS 010700Z 21004KT 140V280 9999 FEW016 FEW017CB 34/24 Q1006

Sandakan Approach/Departure: 123.200

WBKS ATIS
Sandakan, Malaysia

Feed Status: DOWN
Offline since: 2022-07-01 07:16:05 UTC

WBKS 010700Z 21004KT 140V280 9999 FEW016 FEW017CB 34/24 Q1006

Sandakan ATIS: 128.200

WBKS Emergency/Guard
Sandakan, Malaysia

Feed Status: DOWN
Offline since: 2022-07-01 07:16:05 UTC

WBKS 010700Z 21004KT 140V280 9999 FEW016 FEW017CB 34/24 Q1006

Emergency/Guard: 121.500

WBKS Gnd/Twr/App/Guard
Sandakan, Malaysia

Feed Status: DOWN
Offline since: 2022-07-01 07:30:06 UTC

WBKS 010700Z 21004KT 140V280 9999 FEW016 FEW017CB 34/24 Q1006

Emergency/Guard: 121.500
Sandakan Approach/Departure: 123.200
Sandakan Ground: 121.900
Sandakan Tower: 122.050

WBKS Ground
Sandakan, Malaysia

Feed Status: DOWN
Offline since: 2022-07-01 07:16:05 UTC

WBKS 010700Z 21004KT 140V280 9999 FEW016 FEW017CB 34/24 Q1006

Sandakan Ground: 121.900

WBKS Tower
Sandakan, Malaysia

Feed Status: DOWN
Offline since: 2022-07-01 07:16:05 UTC

WBKS 010700Z 21004KT 140V280 9999 FEW016 FEW017CB 34/24 Q1006

Sandakan Tower: 122.050

WMKB Radar (Archives)
Penang, Malaysia

Feed Status: UP
Listen in your browser - HTML5 player(in browser, HTML5)
Click here to listen with your own player(launches your MP3 player)

WMKB 010700Z 22009KT 160V280 9000 FEW020 32/23 Q1005 NOSIG


Listeners: 2 out of 1166 total

Butterworth Radar: 125.800

ZBAA Tower
Beijing, China

Feed Status: DOWN
Offline since: 2022-02-24 16:29:40 UTC

ZBAA 010700Z VRB01MPS CAVOK 29/22 Q1007 NOSIG

Beijing Tower (Rwy 01/19): 118.600